LARETS

Satellite information

Favourite Embed

Satellite Type and Status

PAYLOADIN ORBIT

Key statistics

Satellite LARETS at a glance.

Uptime

8059

Days in orbit

Revolutions

≈ 14.6

Per day

Orbit

SSO

Sun Synchronous Orbit

Inclination

98.4

Latest

Satellite identification and parameters

Extended collection of information and parameters for LARETS.

Object identification

Identified? True

Debris? False

Object name: LARETS

International designator: 2003-042F

Object number (NORAD): 27944

Object ID (CCSDS): 27944

Country: COMMONWEALTH OF INDEPENDENT STATES (CIS)

Current information (Y/N): Y

RCS size: MEDIUM

Orbital parameters

Period: 98.374 minutes

Inclination: 98.3863 deg

SMA: 7059.069 km

Apoapsis: 690.421 km

Periapsis: 671.448 km

RAAN: 85.579 deg

Eccentricy: 0.00134389

Argument of periapsis: 68.1454 deg

Mean anomaly: 292.1175 deg

Mean motion: 14.63799467 rev/day

Mean motion (dot): 0.0000018 rev/day2

B* drag term: 0.000044016061 1/REarth

Two-line elements (TLE)

Creation date: Oct. 20, 2025, 2:10 a.m.

Reference frame: TEME

Reference center: EARTH

Epoch: Oct. 19, 2025, 11:42 p.m. UTC

TLE line 0: 0 LARETS

TLE line 1: 1 27944U 03042F 25292.98801391 .00000180 00000-0 44016-4 0 9992

TLE line 2: 2 27944 98.3863 85.5790 0013439 68.1454 292.1175 14.63799467178220

Live tracking on map

Real-time ground track for satellite LARETS.

In-orbit conjunctions

A list of the most updated potential collisions computed for object LARETS.

Target Orbit TCA Probability of collision Miss distance Type
COSMOS 2251 DEB LEO 2025-10-20 03:27:50 0.000196019 522.0 (m) DEBRIS
FENGYUN 1C DEB SSO 2025-01-28 15:21:06 0.0001178018 147.0 (m) DEBRIS
CZ-6A DEB LEO 2024-12-24 02:06:53 0.0006772066 607.0 (m) DEBRIS
PSLV R/B SSO 2024-12-13 15:42:54 0.0008761235 961.0 (m) ROCKET BODY
CZ-6A DEB LEO 2024-12-12 23:26:13 0.0001012362 36.0 (m) DEBRIS

Associated space launch

Mozhayets 4 (RS 22) was also a training satellite built by the Mozhaisky military academy. It also tested components to be used in upgraded GLONASS satellites.

LARETS was lifted into orbit during the mission ‘Kosmos-3M | Mozhaets-4’, on board a Kosmos-3M space rocket.

The launch took place on Sept. 27, 2003, 6:11 a.m. from 132/1 (132L).

For more information about the launch, click the button.

Launch to space Kosmos-3M | Mozhaets-4
Kosmos-3M | Mozhaets-4

Agency: N/A

Status: Launch Successful

Launch date: Sept. 27, 2003, 6:11 a.m. UTC

Rocket: Kosmos-3M

Launch pad: 132/1 (132L)

Location: Plesetsk Cosmodrome, Russian Federation

...

Latest news about this satellite

There are no fresh news available about this satellite. Check back as we update our databases every day.


Newsletter sign-up

Weekly statistics, charts and insights to help you stay on top of the space industry.